User: anonymous   Login
Location: Unspecified
(0.0000°N, 0.0000°E)
Time: 02:38:07
(UTC+02:00)
Language:

Ariane H10 - Orbit

View from above orbital plane
View from above orbital plane
View from above satellite
View from above satellite

Ground track
Ground track

The orbit data is extracted from the following two-line orbital elements,

1 21727U 91067B   17116.22886442 +.00000090 +00000-0 +46400-3 0  9990
2 21727 004.6041 354.5040 7183458 106.7048 337.0484 02.31908663176741
Epoch (UTC): 26 April 2017 05:29:33
Eccentricity: 0.7183458
inclination: 4.6041°
perigee height: 412 km
apogee height: 35050 km
right ascension of ascending node: 354.5040°
argument of perigee: 106.7048°
revolutions per day: 2.31908663
mean anomaly at epoch: 337.0484°
orbit number at epoch: 17674

The dashed part of the orbit path shows where the satellite is in the earth's shadow,  

DLR